"TOA5","UAFWS4","CR1000","2223","CR1000.Std.08","CPU:UAFWS4-2007-06-11.CR1","22695","HrlyDiag"
"TIMESTAMP","RECORD","station_id","batt_volt_Avg","PTemp_Avg","solarx_Avg","shunt","therms"
"TS","RN","","","","","",""
"","","Smp","Avg","Avg","Avg","Smp","Smp"
"2007-07-10 15:00:00",673,3156,14.55,11.74,19.39,"NAN",3.551
"2007-07-10 16:00:00",674,3156,14.53,13.25,18.05,241.1,3.358
"2007-07-10 17:00:00",675,3156,14.47,13.85,15.86,194,3.337
"2007-07-10 18:00:00",676,3156,14.17,12.94,14.24,221.1,3.364
"2007-07-10 19:00:00",677,3156,14.02,10.69,14.09,"NAN",3.517
"2007-07-10 20:00:00",678,3156,13.97,8.36,14.04,"NAN",3.562
"2007-07-10 21:00:00",679,3156,13.91,7.665,13.98,"NAN",3.72
"2007-07-10 22:00:00",680,3156,13.82,5.758,13.89,"NAN",3.902
"2007-07-10 23:00:00",681,3156,13.74,4.476,13.81,"NAN",4.052
"2007-07-11 00:00:00",682,3156,13.67,3.651,13.73,"NAN",4.204
"2007-07-11 01:00:00",683,3156,13.59,3.077,13.66,"NAN",4.34
"2007-07-11 02:00:00",684,3156,13.53,2.757,13.59,"NAN",4.474
"2007-07-11 03:00:00",685,3156,13.48,2.412,13.54,"NAN",4.603
"2007-07-11 04:00:00",686,3156,13.44,2.234,13.51,"NAN",4.72
"2007-07-11 05:00:00",687,3156,13.44,2.206,13.5,"NAN",4.801
"2007-07-11 06:00:00",688,3156,13.48,2.272,13.73,"NAN",4.888
"2007-07-11 07:00:00",689,3156,13.59,2.437,13.66,"NAN",4.898
"2007-07-11 08:00:00",690,3156,13.78,3.003,13.85,"NAN",4.898
"2007-07-11 09:00:00",691,3156,14.39,3.924,14.7,"NAN",4.814
"2007-07-11 10:00:00",692,3156,14.73,5.239,15.76,"NAN",4.755
"2007-07-11 11:00:00",693,3156,14.71,6.081,17.68,"NAN",4.577
"2007-07-11 12:00:00",694,3156,14.64,8.13,19.25,"NAN",4.224
"2007-07-11 13:00:00",695,3156,14.57,10.47,19.25,"NAN",3.777
"2007-07-11 14:00:00",696,3156,14.56,11.85,19.09,"NAN",3.45
"2007-07-11 15:00:00",697,3156,14.52,13.22,18.64,"NAN",3.238
"2007-07-11 16:00:00",698,3156,14.5,14.19,17.62,199.4,3.127
"2007-07-11 17:00:00",699,3156,14.42,14.95,15.14,161,3.049
"2007-07-11 18:00:00",700,3156,14.07,15.19,14.14,157.8,3.001
"2007-07-11 19:00:00",701,3156,13.92,14.21,13.99,177.1,3.019
"2007-07-11 20:00:00",702,3156,13.86,12.61,13.92,213.8,3.092
"2007-07-11 21:00:00",703,3156,13.8,10.74,13.87,265,3.221
"2007-07-11 22:00:00",704,3156,13.75,8.89,13.82,"NAN",3.376
"2007-07-11 23:00:00",705,3156,13.7,7.024,13.76,"NAN",3.537
"2007-07-12 00:00:00",706,3156,13.63,5.582,13.69,"NAN",3.679
"2007-07-12 01:00:00",707,3156,13.55,4.755,13.62,"NAN",3.802
"2007-07-12 02:00:00",708,3156,13.49,4.335,13.55,"NAN",3.927
"2007-07-12 03:00:00",709,3156,13.44,4.119,13.51,"NAN",4.059
"2007-07-12 04:00:00",710,3156,13.42,4.121,13.48,"NAN",4.146
"2007-07-12 05:00:00",711,3156,13.44,4.351,13.51,"NAN",4.234
"2007-07-12 06:00:00",712,3156,13.51,4.752,13.57,"NAN",4.262
"2007-07-12 07:00:00",713,3156,13.63,5.421,13.7,"NAN",4.271
"2007-07-12 08:00:00",714,3156,13.8,6.126,13.87,"NAN",4.26
"2007-07-12 09:00:00",715,3156,14.44,7.563,16.14,"NAN",4.193
"2007-07-12 10:00:00",716,3156,14.53,10.82,19.01,"NAN",4.167
"2007-07-12 11:00:00",717,3156,14.48,13.1,19.19,"NAN",3.956
"2007-07-12 12:00:00",718,3156,14.47,14.18,19.29,"NAN",3.616
"2007-07-12 13:00:00",719,3156,14.45,15.27,19.13,"NAN",3.238
"2007-07-12 14:00:00",720,3156,14.41,16.61,18.53,139.7,2.939
"2007-07-12 15:00:00",721,3156,14.38,17.69,18.48,269.7,2.82
"2007-07-12 16:00:00",722,3156,14.37,17.94,17.62,260.8,2.73
"2007-07-12 17:00:00",723,3156,14.3,18.04,14.91,124.5,2.674
"2007-07-12 18:00:00",724,3156,13.99,18.01,14.05,119.3,2.624
"2007-07-12 19:00:00",725,3156,13.84,17.92,13.9,117.4,2.61
"2007-07-12 20:00:00",726,3156,13.76,18.16,13.83,114.7,2.606
"2007-07-12 21:00:00",727,3156,13.71,17.98,13.77,120.6,2.667
"2007-07-12 22:00:00",728,3156,13.66,16.6,13.72,134.7,2.755
"2007-07-12 23:00:00",729,3156,13.6,14.77,13.67,165.7,2.89
"2007-07-13 00:00:00",730,3156,13.54,12.68,13.6,207.1,3.047
"2007-07-13 01:00:00",731,3156,13.48,10.61,13.54,257,3.176
"2007-07-13 02:00:00",732,3156,13.43,9.17,13.49,"NAN",3.299
"2007-07-13 03:00:00",733,3156,13.39,8.11,13.46,"NAN",3.417
"2007-07-13 04:00:00",734,3156,13.39,7.686,13.45,"NAN",3.506
"2007-07-13 05:00:00",735,3156,13.44,7.997,13.5,"NAN",3.54
"2007-07-13 06:00:00",736,3156,13.54,8.52,13.6,"NAN",3.556
"2007-07-13 07:00:00",737,3156,13.7,9.03,13.77,"NAN",3.58
"2007-07-13 08:00:00",738,3156,14.07,9.86,14.18,267.8,3.562
"2007-07-13 09:00:00",739,3156,14.54,11.36,17.63,"NAN",3.542
"2007-07-13 10:00:00",740,3156,14.46,14.01,18.98,"NAN",3.484
"2007-07-13 11:00:00",741,3156,14.39,16.13,18.69,137.2,3.297
"2007-07-13 12:00:00",742,3156,14.35,18.22,18.78,238.3,2.993
"2007-07-13 13:00:00",743,3156,14.29,19.98,18.43,218.2,2.66
"2007-07-13 14:00:00",744,3156,14.26,22.16,17.57,203.4,2.375
"2007-07-13 15:00:00",745,3156,14.19,24.57,17.31,201.4,2.204
"2007-07-13 16:00:00",746,3156,14.13,26.29,17.06,196.2,2.113
"2007-07-13 17:00:00",747,3156,14.1,26.95,14.91,83.3,2.061
"2007-07-13 18:00:00",748,3156,13.87,26.51,13.94,79.83,2.088
"2007-07-13 19:00:00",749,3156,13.72,25.02,13.79,81.3,2.106
"2007-07-13 20:00:00",750,3156,13.65,23.48,13.71,86.6,2.142
"2007-07-13 21:00:00",751,3156,13.59,21.48,13.65,99.1,2.22
"2007-07-13 22:00:00",752,3156,13.54,19.21,13.6,118.4,2.335
"2007-07-13 23:00:00",753,3156,13.49,16.86,13.55,148.1,2.496
"2007-07-14 00:00:00",754,3156,13.42,14.51,13.49,186,2.645
"2007-07-14 01:00:00",755,3156,13.37,12.76,13.44,214.2,2.738
"2007-07-14 02:00:00",756,3156,13.33,11.62,13.39,236.7,2.878
"2007-07-14 03:00:00",757,3156,13.3,10.6,13.36,260.3,2.974
"2007-07-14 04:00:00",758,3156,13.3,9.92,13.36,275.3,3.079
"2007-07-14 05:00:00",759,3156,13.33,9.88,13.39,254.5,3.148
"2007-07-14 06:00:00",760,3156,13.5,10.9,13.56,221.8,3.18
"2007-07-14 07:00:00",761,3156,14.14,12.45,14.53,253.2,3.19
"2007-07-14 08:00:00",762,3156,14.45,14.12,18.21,"NAN",3.189
"2007-07-14 09:00:00",763,3156,14.39,16.12,18.95,155.9,3.144
"2007-07-14 10:00:00",764,3156,14.33,17.94,19.31,150,3.079
"2007-07-14 11:00:00",765,3156,14.31,19.07,19.5,257.2,2.947
"2007-07-14 12:00:00",766,3156,14.29,19.9,19.49,257.4,2.78
"2007-07-14 13:00:00",767,3156,14.3,20.52,18.99,246.4,2.589
"2007-07-14 14:00:00",768,3156,14.27,21.28,18.73,240.1,2.445
"2007-07-14 15:00:00",769,3156,14.26,21.62,18.19,238.9,2.341
"2007-07-14 16:00:00",770,3156,14.26,21.71,16.92,107,2.286
"2007-07-14 17:00:00",771,3156,14.18,20.94,14.54,109.3,2.263
"2007-07-14 18:00:00",772,3156,13.87,20.07,13.93,112.3,2.262
"2007-07-14 19:00:00",773,3156,13.72,19.25,13.78,120.5,2.302
"2007-07-14 20:00:00",774,3156,13.65,18.03,13.72,134.7,2.376
"2007-07-14 21:00:00",775,3156,13.61,16.68,13.67,152.9,2.462
"2007-07-14 22:00:00",776,3156,13.57,15.11,13.63,184.2,2.595
"2007-07-14 23:00:00",777,3156,13.53,13.22,13.59,227.4,2.754
"2007-07-15 00:00:00",778,3156,13.48,11.03,13.54,"NAN",2.929
"2007-07-15 01:00:00",779,3156,13.42,9.25,13.49,"NAN",3.076
"2007-07-15 02:00:00",780,3156,13.37,7.819,13.43,"NAN",3.175
"2007-07-15 03:00:00",781,3156,13.31,7.605,13.38,"NAN",3.289
"2007-07-15 04:00:00",782,3156,13.28,7.523,13.34,"NAN",3.407
"2007-07-15 05:00:00",783,3156,13.29,7.33,13.35,"NAN",3.504
"2007-07-15 06:00:00",784,3156,13.36,7.291,13.43,"NAN",3.593
"2007-07-15 07:00:00",785,3156,13.46,7.481,13.53,"NAN",3.633
"2007-07-15 08:00:00",786,3156,14.04,8.28,14.8,"NAN",3.632
"2007-07-15 09:00:00",787,3156,14.54,10.9,19.16,"NAN",3.634
"2007-07-15 10:00:00",788,3156,14.47,13.06,19.9,"NAN",3.582
"2007-07-15 11:00:00",789,3156,14.42,15.16,19.53,"NAN",3.423
"2007-07-15 12:00:00",790,3156,14.4,16.52,19.46,"NAN",3.199
"2007-07-15 13:00:00",791,3156,14.38,17.03,19.79,164.5,2.988
"2007-07-15 14:00:00",792,3156,14.4,16.96,19.44,"NAN",2.844
"2007-07-15 15:00:00",793,3156,14.43,16.87,18.61,"NAN",2.726
"2007-07-15 16:00:00",794,3156,14.41,16.97,16.84,144.4,2.636
"2007-07-15 17:00:00",795,3156,14.3,16.84,14.89,141.2,2.594
"2007-07-15 18:00:00",796,3156,13.95,16.15,14.02,144.9,2.594
"2007-07-15 19:00:00",797,3156,13.8,14.96,13.87,170.3,2.678
"2007-07-15 20:00:00",798,3156,13.75,12.53,13.81,229.4,2.838
"2007-07-15 21:00:00",799,3156,13.73,9.22,13.8,"NAN",3.017
"2007-07-15 22:00:00",800,3156,13.67,7.143,13.73,"NAN",3.182
"2007-07-15 23:00:00",801,3156,13.59,6.037,13.65,"NAN",3.319
"2007-07-16 00:00:00",802,3156,13.52,5.529,13.58,"NAN",3.46
"2007-07-16 01:00:00",803,3156,13.45,5.392,13.51,"NAN",3.594
"2007-07-16 02:00:00",804,3156,13.39,5.353,13.44,"NAN",3.715
"2007-07-16 03:00:00",805,3156,13.34,5.367,13.4,"NAN",3.825
"2007-07-16 04:00:00",806,3156,13.3,5.364,13.36,"NAN",3.968
"2007-07-16 05:00:00",807,3156,13.3,5.51,13.36,"NAN",4.031
"2007-07-16 06:00:00",808,3156,13.34,5.875,13.41,"NAN",4.069
"2007-07-16 07:00:00",809,3156,13.43,6.261,13.49,"NAN",4.121
"2007-07-16 08:00:00",810,3156,13.55,6.659,13.62,"NAN",4.146
"2007-07-16 09:00:00",811,3156,13.77,7.493,13.84,"NAN",4.114
"2007-07-16 10:00:00",812,3156,14.05,8.76,14.13,"NAN",4.083
"2007-07-16 11:00:00",813,3156,14.26,9.9,14.38,"NAN",4.017
"2007-07-16 12:00:00",814,3156,14.55,11.42,16.14,"NAN",3.852
"2007-07-16 13:00:00",815,3156,14.5,12.96,16.93,220,3.648
"2007-07-16 14:00:00",816,3156,14.46,14.56,17.79,"NAN",3.347
"2007-07-16 15:00:00",817,3156,14.41,16.54,17.68,141.1,3.176
"2007-07-16 16:00:00",818,3156,14.41,17.11,17.74,138,2.917
"2007-07-16 17:00:00",819,3156,14.33,18.74,15.09,116.6,2.795
"2007-07-16 18:00:00",820,3156,14,19.44,14.07,108,2.718
"2007-07-16 19:00:00",821,3156,13.84,19.74,13.91,104.1,2.658
"2007-07-16 20:00:00",822,3156,13.76,19.55,13.83,106.3,2.66
"2007-07-16 21:00:00",823,3156,13.71,18.92,13.78,110.4,2.667
"2007-07-16 22:00:00",824,3156,13.67,17.98,13.74,118.5,2.702
"2007-07-16 23:00:00",825,3156,13.64,16.08,13.71,147.5,2.842
"2007-07-17 00:00:00",826,3156,13.59,13.33,13.65,193.4,3.011
"2007-07-17 01:00:00",827,3156,13.52,11.18,13.59,234.4,3.178
"2007-07-17 02:00:00",828,3156,13.47,9.17,13.53,"NAN",3.35
"2007-07-17 03:00:00",829,3156,13.42,8.52,13.49,"NAN",3.391
"2007-07-17 04:00:00",830,3156,13.41,8.54,13.55,274.5,3.444
"2007-07-17 05:00:00",831,3156,13.44,9.69,13.51,218.9,3.399
"2007-07-17 06:00:00",832,3156,13.5,11.06,13.57,200.3,3.436
"2007-07-17 07:00:00",833,3156,13.69,12.16,13.76,178.4,3.418
"2007-07-17 08:00:00",834,3156,13.88,13.78,13.96,155.4,3.399
"2007-07-17 09:00:00",835,3156,14.31,15.63,16.61,263.1,3.341
"2007-07-17 10:00:00",836,3156,14.28,19.45,18.74,233.6,3.227
"2007-07-17 11:00:00",837,3156,14.23,21.83,18.36,99.2,2.997
"2007-07-17 12:00:00",838,3156,14.2,22.71,17.42,189.1,2.825
"2007-07-17 13:00:00",839,3156,14.18,23.7,17.71,224.1,2.516
"2007-07-17 14:00:00",840,3156,14.15,24.24,17.27,183.7,2.366
"2007-07-17 15:00:00",841,3156,14.16,25.09,17,90.5,2.19
"2007-07-17 16:00:00",842,3156,14.1,26.06,15.72,85,2.186
"2007-07-17 17:00:00",843,3156,14.08,25.83,14.72,86.2,2.073
"2007-07-17 18:00:00",844,3156,13.99,27.69,14.11,80.1,1.951
"2007-07-17 19:00:00",845,3156,13.77,27.39,13.84,76.95,1.953
"2007-07-17 20:00:00",846,3156,13.64,26.07,13.7,78.2,1.974
"2007-07-17 21:00:00",847,3156,13.56,23.96,13.63,85.5,2.058
"2007-07-17 22:00:00",848,3156,13.5,21.56,13.57,97.6,2.144
"2007-07-17 23:00:00",849,3156,13.45,19.44,13.52,114.7,2.253
"2007-07-18 00:00:00",850,3156,13.39,17.37,13.46,143,2.415
"2007-07-18 01:00:00",851,3156,13.34,15.05,13.4,175.3,2.507
"2007-07-18 02:00:00",852,3156,13.28,13.54,13.34,197.7,2.627
"2007-07-18 03:00:00",853,3156,13.25,12.58,13.31,213.6,2.727
"2007-07-18 04:00:00",854,3156,13.22,11.69,13.29,234.9,2.857
"2007-07-18 05:00:00",855,3156,13.23,10.63,13.3,269.5,2.987
"2007-07-18 06:00:00",856,3156,13.36,10.16,13.52,251.1,3.012
"2007-07-18 07:00:00",857,3156,13.76,11.25,13.84,238.1,3.061
"2007-07-18 08:00:00",858,3156,14.49,12.67,17.73,"NAN",3.075
"2007-07-18 09:00:00",859,3156,14.46,14.01,19.08,"NAN",3.068
"2007-07-18 10:00:00",860,3156,14.44,15.08,18.92,183.2,2.992
"2007-07-18 11:00:00",861,3156,14.38,16.54,19.05,155.1,2.87
"2007-07-18 12:00:00",862,3156,14.38,17.26,18.82,"NAN",2.769
"2007-07-18 13:00:00",863,3156,14.4,17.02,18.74,138.2,2.615
"2007-07-18 14:00:00",864,3156,14.36,17.88,18.8,183.1,2.421
"2007-07-18 15:00:00",865,3156,14.34,19.15,18.45,256.5,2.302
"2007-07-18 16:00:00",866,3156,14.31,20.06,16.94,112.2,2.194
"2007-07-18 17:00:00",867,3156,14.23,20.85,14.73,103.6,2.141
"2007-07-18 18:00:00",868,3156,13.91,21.65,13.98,95.5,2.108
"2007-07-18 19:00:00",869,3156,13.79,22.11,13.86,95.6,2.177
"2007-07-18 20:00:00",870,3156,13.76,20.75,13.83,99.8,2.218
"2007-07-18 21:00:00",871,3156,13.7,19.71,13.77,104,2.268
"2007-07-18 22:00:00",872,3156,13.65,19.02,13.71,112.1,2.361
"2007-07-18 23:00:00",873,3156,13.57,16.99,13.63,133.5,2.491
"2007-07-19 00:00:00",874,3156,13.47,14.6,13.54,174.1,2.641
"2007-07-19 01:00:00",875,3156,13.4,11.96,13.46,228.6,2.814
"2007-07-19 02:00:00",876,3156,13.33,9.85,13.4,"NAN",2.973
"2007-07-19 03:00:00",877,3156,13.29,8.48,13.35,"NAN",3.136
"2007-07-19 04:00:00",878,3156,13.25,7.91,13.31,"NAN",3.223
"2007-07-19 05:00:00",879,3156,13.24,8.2,13.3,"NAN",3.363
"2007-07-19 06:00:00",880,3156,13.31,7.966,13.38,273.1,3.449
"2007-07-19 07:00:00",881,3156,13.6,8.58,13.67,251.5,3.471
"2007-07-19 08:00:00",882,3156,14.42,9.91,16.75,"NAN",3.468
"2007-07-19 09:00:00",883,3156,14.49,12.38,19.57,208.3,3.452
"2007-07-19 10:00:00",884,3156,14.46,14.1,19.44,184.9,3.398
"2007-07-19 11:00:00",885,3156,14.43,14.66,17.8,163,3.32
"2007-07-19 12:00:00",886,3156,14.42,13.64,15.36,"NAN",3.278
"2007-07-19 13:00:00",887,3156,14.5,13.38,17.55,176,3.169
"2007-07-19 14:00:00",888,3156,14.48,13.97,17.91,188.4,3.017
"2007-07-19 15:00:00",889,3156,14.48,14.09,17.14,197.7,2.963
"2007-07-19 16:00:00",890,3156,14.49,14.17,16.56,162.6,2.83
"2007-07-19 17:00:00",891,3156,14.44,14.84,15.19,153.7,2.756
"2007-07-19 18:00:00",892,3156,14.12,14.26,14.2,164.1,2.795
"2007-07-19 19:00:00",893,3156,13.97,13.05,14.04,168.8,2.81
"2007-07-19 20:00:00",894,3156,13.89,12.14,13.96,196,2.974
"2007-07-19 21:00:00",895,3156,13.81,10.71,13.88,211.3,3.032
"2007-07-19 22:00:00",896,3156,13.73,9.78,13.8,236.2,3.17
"2007-07-19 23:00:00",897,3156,13.66,8.68,13.72,257.2,3.297
"2007-07-20 00:00:00",898,3156,13.58,7.831,13.64,"NAN",3.434
"2007-07-20 01:00:00",899,3156,13.51,6.795,13.57,"NAN",3.622
"2007-07-20 02:00:00",900,3156,13.46,5.397,13.52,"NAN",3.783
"2007-07-20 03:00:00",901,3156,13.41,4.854,13.48,"NAN",3.894
"2007-07-20 04:00:00",902,3156,13.39,4.814,13.45,"NAN",4.003
"2007-07-20 05:00:00",903,3156,13.4,4.752,13.46,"NAN",4.097
"2007-07-20 06:00:00",904,3156,13.46,4.752,13.53,"NAN",4.19
"2007-07-20 07:00:00",905,3156,13.58,4.934,13.65,"NAN",4.208
"2007-07-20 08:00:00",906,3156,13.8,5.594,13.87,"NAN",4.193
"2007-07-20 09:00:00",907,3156,14.06,6.394,14.14,"NAN",4.204
"2007-07-20 10:00:00",908,3156,14.58,7.449,16.51,"NAN",4.128
"2007-07-20 11:00:00",909,3156,14.6,9.35,19.38,"NAN",3.96
"2007-07-20 12:00:00",910,3156,14.55,11.16,19.84,223.1,3.731
"2007-07-20 13:00:00",911,3156,14.52,12.39,19.6,"NAN",3.399
"2007-07-20 14:00:00",912,3156,14.52,13.37,19.25,"NAN",3.205
"2007-07-20 15:00:00",913,3156,14.5,14.08,18.68,"NAN",3.075
"2007-07-20 16:00:00",914,3156,14.5,14.04,17.64,264.2,3.011
"2007-07-20 17:00:00",915,3156,14.41,14.22,15.31,148.3,2.93
"2007-07-20 18:00:00",916,3156,14.02,14.23,14.08,145.7,2.921
"2007-07-20 19:00:00",917,3156,13.86,13.67,13.92,151.5,2.964
"2007-07-20 20:00:00",918,3156,13.8,12.6,13.86,170.1,3.05
"2007-07-20 21:00:00",919,3156,13.77,10.43,13.84,222.6,3.229
"2007-07-20 22:00:00",920,3156,13.73,7.932,13.79,269.5,3.392
"2007-07-20 23:00:00",921,3156,13.65,6.485,13.72,"NAN",3.556
"2007-07-21 00:00:00",922,3156,13.58,5.397,13.64,"NAN",3.704
"2007-07-21 01:00:00",923,3156,13.5,4.876,13.57,"NAN",3.846
"2007-07-21 02:00:00",924,3156,13.44,4.67,13.5,"NAN",3.97
"2007-07-21 03:00:00",925,3156,13.39,4.635,13.45,"NAN",4.093
"2007-07-21 04:00:00",926,3156,13.36,4.715,13.43,"NAN",4.182
"2007-07-21 05:00:00",927,3156,13.37,4.89,13.44,"NAN",4.267
"2007-07-21 06:00:00",928,3156,13.38,5.187,13.45,266.7,4.33
"2007-07-21 07:00:00",929,3156,13.47,5.841,13.54,249.8,4.339
"2007-07-21 08:00:00",930,3156,13.6,6.377,13.66,243.7,4.398
"2007-07-21 09:00:00",931,3156,13.71,6.586,13.78,237.9,4.402
"2007-07-21 10:00:00",932,3156,13.93,7.13,14,230,4.382
"2007-07-21 11:00:00",933,3156,14.16,7.95,14.23,217.8,4.351
"2007-07-21 12:00:00",934,3156,14.36,8.69,14.46,216.9,4.297
"2007-07-21 13:00:00",935,3156,14.6,9.34,15.46,199,4.189
"2007-07-21 14:00:00",936,3156,14.59,10.3,17.62,"NAN",3.94
"2007-07-21 15:00:00",937,3156,14.54,11.95,19.13,"NAN",3.652
"2007-07-21 16:00:00",938,3156,14.52,13.28,18.24,158.8,3.479
"2007-07-21 17:00:00",939,3156,14.45,13.71,15.77,150.6,3.384
"2007-07-21 18:00:00",940,3156,14.08,13.44,14.15,145.9,3.333
"2007-07-21 19:00:00",941,3156,13.93,13.19,14.08,145.1,3.337
"2007-07-21 20:00:00",942,3156,13.87,11.93,13.93,165.7,3.404
"2007-07-21 21:00:00",943,3156,13.82,10.11,13.89,196.3,3.534
"2007-07-21 22:00:00",944,3156,13.78,8.04,13.84,249.7,3.749
"2007-07-21 23:00:00",945,3156,13.72,5.635,13.78,"NAN",3.884
"2007-07-22 00:00:00",946,3156,13.63,4.534,13.7,"NAN",4.036
"2007-07-22 01:00:00",947,3156,13.56,3.853,13.62,"NAN",4.171
"2007-07-22 02:00:00",948,3156,13.49,3.375,13.56,"NAN",4.309
"2007-07-22 03:00:00",949,3156,13.43,2.976,13.5,"NAN",4.446
"2007-07-22 04:00:00",950,3156,13.39,2.702,13.45,"NAN",4.565
"2007-07-22 05:00:00",951,3156,13.36,2.788,13.43,"NAN",4.667
"2007-07-22 06:00:00",952,3156,13.41,2.908,13.47,"NAN",4.72
"2007-07-22 07:00:00",953,3156,13.51,3.355,13.58,"NAN",4.746
"2007-07-22 08:00:00",954,3156,13.71,4.097,13.78,272.6,4.724
"2007-07-22 09:00:00",955,3156,13.94,4.859,14.01,262.3,4.741
"2007-07-22 10:00:00",956,3156,14.51,5.817,14.67,"NAN",4.663
"2007-07-22 11:00:00",957,3156,14.68,7.265,16.98,252.9,4.523
"2007-07-22 12:00:00",958,3156,14.63,8.77,18.26,"NAN",4.317
"2007-07-22 13:00:00",959,3156,14.59,10.19,19.32,"NAN",4.014
"2007-07-22 14:00:00",960,3156,14.55,11.83,19.78,"NAN",3.649
"2007-07-22 15:00:00",961,3156,14.51,13.16,19.35,165.4,3.442
"2007-07-22 16:00:00",962,3156,14.5,13.75,18.57,149.6,3.348
"2007-07-22 17:00:00",963,3156,14.45,13.71,15.45,141.8,3.258
"2007-07-22 18:00:00",964,3156,14.07,13.66,14.13,137.2,3.233
"2007-07-22 19:00:00",965,3156,13.91,13.12,13.98,140.3,3.248
"2007-07-22 20:00:00",966,3156,13.85,12.29,13.99,150.4,3.302
"2007-07-22 21:00:00",967,3156,13.8,11.09,13.87,164.9,3.402
"2007-07-22 22:00:00",968,3156,13.76,9.69,13.82,192.3,3.553
"2007-07-22 23:00:00",969,3156,13.71,7.506,13.77,252.2,3.783
"2007-07-23 00:00:00",970,3156,13.64,4.872,13.7,"NAN",3.904
"2007-07-23 01:00:00",971,3156,13.56,4.194,13.63,"NAN",4.032
"2007-07-23 02:00:00",972,3156,13.49,3.852,13.56,"NAN",4.182
"2007-07-23 03:00:00",973,3156,13.43,3.284,13.5,"NAN",4.324
"2007-07-23 04:00:00",974,3156,13.39,2.903,13.45,"NAN",4.466
"2007-07-23 05:00:00",975,3156,13.37,2.636,13.44,"NAN",4.565
"2007-07-23 06:00:00",976,3156,13.4,2.81,13.55,"NAN",4.654
"2007-07-23 07:00:00",977,3156,13.5,2.977,13.57,"NAN",4.711
"2007-07-23 08:00:00",978,3156,13.7,3.291,13.77,"NAN",4.715
"2007-07-23 09:00:00",979,3156,14.01,4.096,14.09,274.7,4.671
"2007-07-23 10:00:00",980,3156,14.24,4.92,14.32,270.2,4.662
"2007-07-23 11:00:00",981,3156,14.68,6.372,15.99,232.5,4.542
"2007-07-23 12:00:00",982,3156,14.64,8.15,16.08,207,4.43
"2007-07-23 13:00:00",983,3156,14.62,9.16,15.87,"NAN",4.275
"2007-07-23 14:00:00",984,3156,14.58,10.51,16.55,176.9,4.128
"2007-07-23 15:00:00",985,3156,14.54,11.19,15.08,171.1,4.044
"2007-07-23 16:00:00",986,3156,14.41,11.29,14.73,164.2,3.976
"2007-07-23 17:00:00",987,3156,14.42,11.27,14.69,162.4,3.872
"2007-07-23 18:00:00",988,3156,14.18,11.14,14.26,160.6,3.861
"2007-07-23 19:00:00",989,3156,14.07,10.84,14.14,160.9,3.862
"2007-07-23 20:00:00",990,3156,13.96,10.05,14.03,171.5,3.937
"2007-07-23 21:00:00",991,3156,13.86,8.72,13.92,183.5,4.01
"2007-07-23 22:00:00",992,3156,13.77,8.09,13.83,185.6,4.072
"2007-07-23 23:00:00",993,3156,13.69,7.828,13.75,185.5,4.139
"2007-07-24 00:00:00",994,3156,13.6,7.678,13.67,183.7,4.204
"2007-07-24 01:00:00",995,3156,13.53,7.64,13.59,181.4,4.267
"2007-07-24 02:00:00",996,3156,13.46,7.643,13.53,179.7,4.332
"2007-07-24 03:00:00",997,3156,13.4,7.285,13.47,182.5,4.399
"2007-07-24 04:00:00",998,3156,13.36,7.018,13.42,184.7,4.473
"2007-07-24 05:00:00",999,3156,13.35,6.612,13.41,189.9,4.523
"2007-07-24 06:00:00",1000,3156,13.37,6.316,13.44,192.1,4.569
"2007-07-24 07:00:00",1001,3156,13.44,6.686,13.51,183.1,4.554
"2007-07-24 08:00:00",1002,3156,13.54,7.647,13.61,175.5,4.569
"2007-07-24 09:00:00",1003,3156,13.64,8.48,13.71,169.8,4.551
"2007-07-24 10:00:00",1004,3156,13.85,9.67,13.97,165.8,4.506
"2007-07-24 11:00:00",1005,3156,14.05,10.46,14.12,161.2,4.442
"2007-07-24 12:00:00",1006,3156,14.16,11.18,14.23,155.6,4.374
"2007-07-24 13:00:00",1007,3156,14.24,11.68,14.31,153.6,4.271
"2007-07-24 14:00:00",1008,3156,14.32,12.34,14.39,147.5,4.146
"2007-07-24 15:00:00",1009,3156,14.4,12.76,14.55,147.4,4.022
"2007-07-24 16:00:00",1010,3156,14.5,13.33,15.91,229.5,3.824
"2007-07-24 17:00:00",1011,3156,14.39,14.28,15.02,131,3.722
"2007-07-24 18:00:00",1012,3156,14.22,14.45,14.3,126.1,3.648
"2007-07-24 19:00:00",1013,3156,14.09,14.11,14.16,125,3.654
"2007-07-24 20:00:00",1014,3156,14.01,13.53,14.08,126.5,3.645
"2007-07-24 21:00:00",1015,3156,13.92,12.86,13.99,128.8,3.645
"2007-07-24 22:00:00",1016,3156,13.84,12.12,13.9,138.3,3.719
"2007-07-24 23:00:00",1017,3156,13.76,9.52,13.83,169.7,3.871
"2007-07-25 00:00:00",1018,3156,13.67,7.611,13.73,184.3,3.947
"2007-07-25 01:00:00",1019,3156,13.59,7.121,13.65,185,4.025
"2007-07-25 02:00:00",1020,3156,13.51,6.58,13.58,196.6,4.15
"2007-07-25 03:00:00",1021,3156,13.45,5.826,13.52,200.7,4.234
"2007-07-25 04:00:00",1022,3156,13.41,5.617,13.47,199.8,4.32
"2007-07-25 05:00:00",1023,3156,13.41,5.596,13.48,198.6,4.379
"2007-07-25 06:00:00",1024,3156,13.47,5.609,13.54,198.1,4.418
"2007-07-25 07:00:00",1025,3156,13.62,5.807,13.69,198.1,4.434
"2007-07-25 08:00:00",1026,3156,13.91,6.23,13.98,196,4.418
"2007-07-25 09:00:00",1027,3156,14.21,6.943,14.5,216.2,4.388
"2007-07-25 10:00:00",1028,3156,14.63,7.926,15.74,191.4,4.305
"2007-07-25 11:00:00",1029,3156,14.62,8.89,15.98,182.4,4.198
"2007-07-25 12:00:00",1030,3156,14.44,9.46,14.72,178.1,4.135
"2007-07-25 13:00:00",1031,3156,14.59,10.13,16.01,170.6,3.973
"2007-07-25 14:00:00",1032,3156,14.56,10.97,15.71,162.4,3.843
"2007-07-25 15:00:00",1033,3156,14.54,11.4,14.94,159.6,3.756
"2007-07-25 16:00:00",1034,3156,14.47,11.64,14.61,152.3,3.645
"2007-07-25 17:00:00",1035,3156,14.29,12,14.36,147.3,3.576
"2007-07-25 18:00:00",1036,3156,14.17,12.34,14.25,141.1,3.532
"2007-07-25 19:00:00",1037,3156,14.07,12.45,14.14,138.5,3.515
"2007-07-25 20:00:00",1038,3156,13.95,12.92,14.02,132.2,3.431
"2007-07-25 21:00:00",1039,3156,13.86,13.08,13.93,131.9,3.466
"2007-07-25 22:00:00",1040,3156,13.76,11.3,2.634,45.45,3.556
"2007-07-25 23:00:00",1041,3156,13.65,9.28,0.081,53.11,3.765
"2007-07-26 00:00:00",1042,3156,13.57,7.054,0.056,63.84,3.987
"2007-07-26 01:00:00",1043,3156,13.5,5.224,0.038,74.4,4.114
"2007-07-26 02:00:00",1044,3156,13.44,3.942,0.023,82.8,4.297
"2007-07-26 03:00:00",1045,3156,13.39,3.157,0.01,88.2,4.442
"2007-07-26 04:00:00",1046,3156,13.33,2.961,0,89.5,4.565
"2007-07-26 05:00:00",1047,3156,13.29,2.833,-0.009,88.4,4.573
"2007-07-26 06:00:00",1048,3156,13.24,4.024,-0.01,75.73,4.507
"2007-07-26 07:00:00",1049,3156,13.2,6.005,-0.009,63.91,4.426
"2007-07-26 08:00:00",1050,3156,13.16,8.16,-0.005,54.23,4.404
"2007-07-26 09:00:00",1051,3156,13.12,9.51,-0.007,47.63,4.378
"2007-07-26 10:00:00",1052,3156,13.09,11.19,-0.005,40.38,4.263
"2007-07-26 11:00:00",1053,3156,13.05,12.45,-0.007,35.65,4.069
"2007-07-26 12:00:00",1054,3156,13.02,14.09,-0.003,31.05,3.826
"2007-07-26 13:00:00",1055,3156,13.01,15.67,0.001,25.89,3.678
"2007-07-26 14:00:00",1056,3156,13,16.72,0.004,21.67,3.392
"2007-07-26 15:00:00",1057,3156,13.01,18.37,0.012,16.88,3.155
"2007-07-26 16:00:00",1058,3156,13.02,20.23,0.021,11.96,2.953